Charleston, SC

7:59 PM EDT on August 22, 2017 (GMT -0400)
Charleston Air Force Base-International

Weather History for KCHS - January, 2011

Change the Weather History Date:

Wednesday, January 26, 2011

  Actual Average Record
Temperature  
Mean Temperature 52 °F 49 °F  
Max Temperature 61 °F 60 °F 80 °F (1949)
Min Temperature 42 °F 38 °F 20 °F (1940)
Degree Days  
Heating Degree Days 13 16  
Month to date heating degree days 561 440  
Since 1 July heating degree days 1498 1178  
Cooling Degree Days 0 0  
Month to date cooling degree days 0  
Year to date cooling degree days 0  
Growing Degree Days 2 (Base 50)    
Moisture  
Dew Point 46 °F    
Average Humidity 77    
Maximum Humidity 100    
Minimum Humidity 54    
Precipitation  
Precipitation 0.02 in 0.12 in 1.07 in (2004)
Month to date precipitation 1.98 3.12  
Year to date precipitation 1.98 3.12  
Snow  
Snow 0.00 in 0.00 in - ()
Month to date snowfall T  
Since 1 July snowfall 0.2 0.3  
Snow Depth 0.00 in    
Sea Level Pressure  
Sea Level Pressure 29.78 in    
Wind  
Wind Speed 13 mph (WSW)    
Max Wind Speed 30 mph    
Max Gust Speed 43 mph    
Visibility 5 miles    
Events Fog    
T = Trace of Precipitation, MM = Missing Value Source: NWS Daily Summary

Daily Weather History Graph

Daily Weather History Graph

Search for Another Location

Airport or City:

Trip Planner

Search our weather history database for the weather conditions in past years. The results will help you decide how hot, cold, wet, or windy it might be!

Date:

Astronomy

Jan. 26, 2011 Rise Set
Actual Time 7:19 AM EST 5:46 PM EST
Civil Twilight 6:52 AM EST 6:12 PM EST
Nautical Twilight 6:23 AM EST 6:42 PM EST
Astronomical Twilight 5:53 AM EST 7:12 PM EST
Moon 12:36 AM EST (1/26) 11:25 AM EST (1/26)
Length of Visible Light 11h 20m
Length of Day
10h 27m
Waning Gibbous, 48% of the Moon is Illuminated
Jan 26
Waning Gibbous
Feb 2
New
Feb 11
First Quarter
Feb 18
Full
Feb 24
Last Quarter

Hourly Weather History & Observations

Time (EST) Temp. Windchill Dew Point Humidity Pressure Visibility Wind Dir Wind Speed Gust Speed Precip Events Conditions
12:56 AM 50.0 °F - 50.0 °F 100% 29.80 in 0.2 mi NNW 5.8 mph - N/A Fog Fog
1:56 AM 48.9 °F - 48.9 °F 100% 29.81 in 0.2 mi WNW 3.5 mph - N/A Fog Fog
2:56 AM 48.9 °F - 48.9 °F 100% 29.78 in 0.2 mi Calm Calm - N/A Fog Fog
3:02 AM 48.2 °F - 48.2 °F 100% 29.78 in 0.2 mi Calm Calm - N/A Fog Fog
3:05 AM 48.2 °F - 48.2 °F 100% 29.78 in 0.5 mi NE 3.5 mph - N/A Fog Fog
3:30 AM 48.2 °F - 48.2 °F 100% 29.76 in 0.8 mi NE 4.6 mph - N/A   Overcast
3:56 AM 48.9 °F - 48.9 °F 100% 29.76 in 0.8 mi Calm Calm - N/A   Overcast
4:34 AM 48.2 °F - 48.2 °F 100% 29.74 in 0.5 mi SE 3.5 mph - N/A Fog Fog
4:56 AM 48.9 °F - 48.9 °F 100% 29.73 in 0.5 mi ESE 4.6 mph - N/A Fog Fog
5:49 AM 50.0 °F - 50.0 °F 100% 29.74 in 0.8 mi South 3.5 mph - N/A   Overcast
5:56 AM 50.0 °F - 50.0 °F 100% 29.74 in 0.8 mi South 4.6 mph - N/A   Overcast
6:22 AM 50.0 °F - 50.0 °F 100% 29.73 in 1.0 mi SSE 4.6 mph - 0.00 in   Light Drizzle
6:50 AM 51.8 °F - 51.8 °F 100% 29.72 in 1.2 mi South 5.8 mph - 0.00 in   Overcast
6:56 AM 51.1 °F - 51.1 °F 100% 29.72 in 1.2 mi South 4.6 mph - 0.00 in   Overcast
7:11 AM 51.8 °F - 51.8 °F 100% 29.71 in 0.5 mi South 5.8 mph - 0.01 in   Overcast
7:56 AM 53.1 °F - 53.1 °F 100% 29.71 in 0.5 mi South 9.2 mph - N/A   Overcast
8:18 AM 55.4 °F - 55.4 °F 100% 29.71 in 1.0 mi SSW 10.4 mph - N/A   Overcast
8:29 AM 55.4 °F - 55.4 °F 100% 29.71 in 6.0 mi SW 13.8 mph - N/A   Overcast
8:56 AM 55.9 °F - 55.9 °F 100% 29.71 in 8.0 mi SW 13.8 mph - N/A   Overcast
9:30 AM 59.0 °F - 57.2 °F 94% 29.70 in 10.0 mi SSW 12.7 mph - N/A   Mostly Cloudy
9:56 AM 59.0 °F - 57.0 °F 93% 29.70 in 10.0 mi SW 10.4 mph 20.7 mph N/A   Mostly Cloudy
10:47 AM 59.0 °F - 48.2 °F 67% 29.73 in 10.0 mi West 21.9 mph 36.8 mph N/A   Scattered Clouds
10:56 AM 57.9 °F - 48.0 °F 70% 29.73 in 10.0 mi West 25.3 mph 31.1 mph N/A   Mostly Cloudy
11:56 AM 55.9 °F - 44.1 °F 64% 29.75 in 10.0 mi West 20.7 mph 31.1 mph N/A   Mostly Cloudy
12:56 PM 54.0 °F - 45.0 °F 72% 29.75 in 10.0 mi West 21.9 mph 26.5 mph N/A   Mostly Cloudy
1:56 PM 53.1 °F - 41.0 °F 64% 29.75 in 10.0 mi West 25.3 mph 36.8 mph N/A   Mostly Cloudy
2:56 PM 53.1 °F - 39.9 °F 61% 29.74 in 10.0 mi West 18.4 mph 26.5 mph N/A   Mostly Cloudy
3:56 PM 54.0 °F - 39.0 °F 57% 29.76 in 10.0 mi West 27.6 mph 33.4 mph N/A   Scattered Clouds
4:56 PM 53.1 °F - 37.0 °F 55% 29.78 in 10.0 mi West 19.6 mph 34.5 mph N/A   Scattered Clouds
5:56 PM 51.1 °F - 37.0 °F 59% 29.83 in 10.0 mi West 12.7 mph - N/A   Partly Cloudy
6:56 PM 50.0 °F - 35.1 °F 57% 29.88 in 10.0 mi West 18.4 mph 25.3 mph N/A   Clear
7:56 PM 48.9 °F - 34.0 °F 56% 29.91 in 10.0 mi West 15.0 mph 23.0 mph N/A   Clear
8:56 PM 46.9 °F - 34.0 °F 61% 29.92 in 10.0 mi West 12.7 mph - N/A   Clear
9:56 PM 46.0 °F 39.6 °F 34.0 °F 63% 29.96 in 10.0 mi West 15.0 mph 20.7 mph N/A   Clear
10:56 PM 44.1 °F 40.1 °F 35.1 °F 71% 29.98 in 10.0 mi West 6.9 mph - N/A   Clear
11:56 PM 43.0 °F 38.2 °F 35.1 °F 74% 30.00 in 10.0 mi West 8.1 mph - N/A   Clear